"Time","Value","Approval","myLocation"
"2023-05-06 00:00",3.28356808454734,"Approved","OW362"
"2023-05-06 01:00",3.28158262341985,"Approved","OW362"
"2023-05-06 02:00",3.27959716229235,"Approved","OW362"
"2023-05-06 03:00",3.27761170116486,"Approved","OW362"
"2023-05-06 04:00",3.27462624003737,"Approved","OW362"
"2023-05-06 05:00",3.27364077890988,"Approved","OW362"
"2023-05-06 06:00",3.27065531778238,"Approved","OW362"
"2023-05-06 07:00",3.26766985665489,"Approved","OW362"
"2023-05-06 08:00",3.2646843955274,"Approved","OW362"
"2023-05-06 09:00",3.26269893439991,"Approved","OW362"
"2023-05-06 10:00",3.25971347327241,"Approved","OW362"
"2023-05-06 11:00",3.25772801214492,"Approved","OW362"
"2023-05-06 12:00",3.25474255101743,"Approved","OW362"
"2023-05-06 13:00",3.25175708988994,"Approved","OW362"
"2023-05-06 14:00",3.25077162876244,"Approved","OW362"
"2023-05-06 15:00",3.24778616763495,"Approved","OW362"
"2023-05-06 16:00",3.24580070650746,"Approved","OW362"
"2023-05-06 17:00",3.24381524537997,"Approved","OW362"
"2023-05-06 18:00",3.24182978425247,"Approved","OW362"
"2023-05-06 19:00",3.23884432312498,"Approved","OW362"
"2023-05-06 20:00",3.23685886199749,"Approved","OW362"
"2023-05-06 21:00",3.23287340087,"Approved","OW362"
"2023-05-06 22:00",3.2318879397425,"Approved","OW362"
"2023-05-06 23:00",3.22990247861501,"Approved","OW362"
"2023-05-07 00:00",3.22691701748752,"Approved","OW362"
"2023-05-07 01:00",3.22593155636003,"Approved","OW362"
"2023-05-07 02:00",3.22394609523253,"Approved","OW362"
"2023-05-07 03:00",3.22196063410504,"Approved","OW362"
"2023-05-07 04:00",3.21997517297755,"Approved","OW362"
"2023-05-07 05:00",3.21798971185006,"Approved","OW362"
"2023-05-07 06:00",3.21600425072256,"Approved","OW362"
"2023-05-07 07:00",3.21401878959507,"Approved","OW362"
"2023-05-07 08:00",3.21203332846758,"Approved","OW362"
"2023-05-07 09:00",3.21004786734009,"Approved","OW362"
"2023-05-07 10:00",3.20706240621259,"Approved","OW362"
"2023-05-07 11:00",3.2050769450851,"Approved","OW362"
"2023-05-07 12:00",3.20309148395761,"Approved","OW362"
"2023-05-07 13:00",3.20110602283012,"Approved","OW362"
"2023-05-07 14:00",3.19912056170262,"Approved","OW362"
"2023-05-07 15:00",3.19913510057513,"Approved","OW362"
"2023-05-07 16:00",3.19614963944764,"Approved","OW362"
"2023-05-07 17:00",3.19416417832015,"Approved","OW362"
"2023-05-07 18:00",3.19317871719265,"Approved","OW362"
"2023-05-07 19:00",3.19019325606516,"Approved","OW362"
"2023-05-07 20:00",3.18920779493767,"Approved","OW362"
"2023-05-07 21:00",3.18722233381018,"Approved","OW362"
"2023-05-07 22:00",3.18523687268268,"Approved","OW362"
"2023-05-07 23:00",3.18425141155519,"Approved","OW362"
"2023-05-08 00:00",3.1822659504277,"Approved","OW362"
"2023-05-08 01:00",3.18128048930021,"Approved","OW362"
"2023-05-08 02:00",3.18029502817271,"Approved","OW362"
"2023-05-08 03:00",3.17930956704522,"Approved","OW362"
"2023-05-08 04:00",3.17732410591773,"Approved","OW362"
"2023-05-08 05:00",3.17633864479024,"Approved","OW362"
"2023-05-08 06:00",3.17435318366274,"Approved","OW362"
"2023-05-08 07:00",3.17236772253525,"Approved","OW362"
"2023-05-08 08:00",3.17138226140776,"Approved","OW362"
"2023-05-08 09:00",3.16939680028027,"Approved","OW362"
"2023-05-08 10:00",3.16741133915278,"Approved","OW362"
"2023-05-08 11:00",3.16742587802528,"Approved","OW362"
"2023-05-08 12:00",3.16544041689779,"Approved","OW362"
"2023-05-08 13:00",3.1644549557703,"Approved","OW362"
"2023-05-08 14:00",3.1624694946428,"Approved","OW362"
"2023-05-08 15:00",3.16148403351531,"Approved","OW362"
"2023-05-08 16:00",3.16049857238782,"Approved","OW362"
"2023-05-08 17:00",3.15851311126033,"Approved","OW362"
"2023-05-08 18:00",3.16152765013284,"Approved","OW362"
"2023-05-08 19:00",3.15654218900534,"Approved","OW362"
"2023-05-08 20:00",3.15555672787785,"Approved","OW362"
"2023-05-08 21:00",3.15357126675036,"Approved","OW362"
"2023-05-08 22:00",3.15258580562287,"Approved","OW362"
"2023-05-08 23:00",3.15060034449537,"Approved","OW362"
"2023-05-09 00:00",3.14961488336788,"Approved","OW362"
"2023-05-09 01:00",3.14862942224039,"Approved","OW362"
"2023-05-09 02:00",3.1486439611129,"Approved","OW362"
"2023-05-09 03:00",3.1486584999854,"Approved","OW362"
"2023-05-09 04:00",3.14667303885791,"Approved","OW362"
"2023-05-09 05:00",3.14768757773042,"Approved","OW362"
"2023-05-09 06:00",3.14670211660292,"Approved","OW362"
"2023-05-09 07:00",3.14671665547543,"Approved","OW362"
"2023-05-09 08:00",3.14673119434794,"Approved","OW362"
"2023-05-09 09:00",3.14574573322045,"Approved","OW362"
"2023-05-09 10:00",3.14576027209296,"Approved","OW362"
"2023-05-09 11:00",3.14577481096546,"Approved","OW362"
"2023-05-09 12:00",3.14478934983797,"Approved","OW362"
"2023-05-09 13:00",3.14380388871048,"Approved","OW362"
"2023-05-09 14:00",3.14281842758299,"Approved","OW362"
"2023-05-09 15:00",3.14183296645549,"Approved","OW362"
"2023-05-09 16:00",3.141847505328,"Approved","OW362"
"2023-05-09 17:00",3.13986204420051,"Approved","OW362"
"2023-05-09 18:00",3.13887658307302,"Approved","OW362"
"2023-05-09 19:00",3.13889112194552,"Approved","OW362"
"2023-05-09 20:00",3.13790566081803,"Approved","OW362"
"2023-05-09 21:00",3.13792019969054,"Approved","OW362"
"2023-05-09 22:00",3.13693473856305,"Approved","OW362"
"2023-05-09 23:00",3.13694927743555,"Approved","OW362"
"2023-05-10 00:00",3.13696381630806,"Approved","OW362"
"2023-05-10 01:00",3.13597835518057,"Approved","OW362"
"2023-05-10 02:00",3.13699289405308,"Approved","OW362"
"2023-05-10 03:00",3.13600743292558,"Approved","OW362"
"2023-05-10 04:00",3.13502197179809,"Approved","OW362"
"2023-05-10 05:00",3.1340365106706,"Approved","OW362"
"2023-05-10 06:00",3.13305104954311,"Approved","OW362"
"2023-05-10 07:00",3.13206558841561,"Approved","OW362"
"2023-05-10 08:00",3.13108012728812,"Approved","OW362"
"2023-05-10 09:00",3.13009466616063,"Approved","OW362"
"2023-05-10 10:00",3.12910920503314,"Approved","OW362"
"2023-05-10 11:00",3.12812374390564,"Approved","OW362"
"2023-05-10 12:00",3.12713828277815,"Approved","OW362"
"2023-05-10 13:00",3.12715282165066,"Approved","OW362"
"2023-05-10 14:00",3.12616736052317,"Approved","OW362"
"2023-05-10 15:00",3.12618189939567,"Approved","OW362"
"2023-05-10 16:00",3.12519643826818,"Approved","OW362"
"2023-05-10 17:00",3.12521097714069,"Approved","OW362"
"2023-05-10 18:00",3.1242255160132,"Approved","OW362"
"2023-05-10 19:00",3.1242400548857,"Approved","OW362"
"2023-05-10 20:00",3.12425459375821,"Approved","OW362"
"2023-05-10 21:00",3.12426913263072,"Approved","OW362"
"2023-05-10 22:00",3.12428367150323,"Approved","OW362"
"2023-05-10 23:00",3.12429821037573,"Approved","OW362"
"2023-05-11 00:00",3.12431274924824,"Approved","OW362"
"2023-05-11 01:00",3.12432728812075,"Approved","OW362"
"2023-05-11 02:00",3.12234182699326,"Approved","OW362"
"2023-05-11 03:00",3.12335636586576,"Approved","OW362"
"2023-05-11 04:00",3.12237090473827,"Approved","OW362"
"2023-05-11 05:00",3.12238544361078,"Approved","OW362"
"2023-05-11 06:00",3.12139998248329,"Approved","OW362"
"2023-05-11 07:00",3.11941452135579,"Approved","OW362"
"2023-05-11 08:00",3.1194290602283,"Approved","OW362"
"2023-05-11 09:00",3.11844359910081,"Approved","OW362"
"2023-05-11 10:00",3.11845813797332,"Approved","OW362"
"2023-05-11 11:00",3.11747267684582,"Approved","OW362"
"2023-05-11 12:00",3.11748721571833,"Approved","OW362"
"2023-05-11 13:00",3.11750175459084,"Approved","OW362"
"2023-05-11 14:00",3.11651629346335,"Approved","OW362"
"2023-05-11 15:00",3.11653083233585,"Approved","OW362"
"2023-05-11 16:00",3.11654537120836,"Approved","OW362"
"2023-05-11 17:00",3.11555991008087,"Approved","OW362"
"2023-05-11 18:00",3.11657444895338,"Approved","OW362"
"2023-05-11 19:00",3.11658898782588,"Approved","OW362"
"2023-05-11 20:00",3.11660352669839,"Approved","OW362"
"2023-05-11 21:00",3.1176180655709,"Approved","OW362"
"2023-05-11 22:00",3.11863260444341,"Approved","OW362"
"2023-05-11 23:00",3.11864714331591,"Approved","OW362"
"2023-05-12 00:00",3.11866168218842,"Approved","OW362"
"2023-05-12 01:00",3.11867622106093,"Approved","OW362"
"2023-05-12 02:00",3.11969075993344,"Approved","OW362"
"2023-05-12 03:00",3.12070529880594,"Approved","OW362"
"2023-05-12 04:00",3.12071983767845,"Approved","OW362"
"2023-05-12 05:00",3.12073437655096,"Approved","OW362"
"2023-05-12 06:00",3.12074891542347,"Approved","OW362"
"2023-05-12 07:00",3.11076345429597,"Approved","OW362"
"2023-05-12 08:00",3.12077799316848,"Approved","OW362"
"2023-05-12 09:00",3.11979253204099,"Approved","OW362"
"2023-05-12 10:00",3.1208070709135,"Approved","OW362"
"2023-05-12 11:00",3.120821609786,"Approved","OW362"
"2023-05-12 12:00",3.12083614865851,"Approved","OW362"
"2023-05-12 13:00",3.12085068753102,"Approved","OW362"
"2023-05-12 14:00",3.11986522640353,"Approved","OW362"
"2023-05-12 15:00",3.11987976527603,"Approved","OW362"
"2023-05-12 16:00",3.11989430414854,"Approved","OW362"
"2023-05-12 17:00",3.11990884302105,"Approved","OW362"
"2023-05-12 18:00",3.12092338189356,"Approved","OW362"
"2023-05-12 19:00",3.12093792076606,"Approved","OW362"
"2023-05-12 20:00",3.12195245963857,"Approved","OW362"
"2023-05-12 21:00",3.12196699851108,"Approved","OW362"
"2023-05-12 22:00",3.12198153738359,"Approved","OW362"
"2023-05-12 23:00",3.12299607625609,"Approved","OW362"
"2023-05-13 00:00",3.1230106151286,"Approved","OW362"
"2023-05-13 01:00",3.12302515400111,"Approved","OW362"
"2023-05-13 02:00",3.12403969287362,"Approved","OW362"
"2023-05-13 03:00",3.12405423174612,"Approved","OW362"
"2023-05-13 04:00",3.12406877061863,"Approved","OW362"
"2023-05-13 05:00",3.12408330949114,"Approved","OW362"
"2023-05-13 06:00",3.12309784836365,"Approved","OW362"
"2023-05-13 07:00",3.12411238723615,"Approved","OW362"
"2023-05-13 08:00",3.12412692610866,"Approved","OW362"
"2023-05-13 09:00",3.12414146498117,"Approved","OW362"
"2023-05-13 10:00",3.12415600385368,"Approved","OW362"
"2023-05-13 11:00",3.12417054272618,"Approved","OW362"
"2023-05-13 12:00",3.12418508159869,"Approved","OW362"
"2023-05-13 13:00",3.1241996204712,"Approved","OW362"
"2023-05-13 14:00",3.12321415934371,"Approved","OW362"
"2023-05-13 15:00",3.12222869821621,"Approved","OW362"
"2023-05-13 16:00",3.12124323708872,"Approved","OW362"
"2023-05-13 17:00",3.12025777596123,"Approved","OW362"
"2023-05-13 18:00",3.12127231483374,"Approved","OW362"
"2023-05-13 19:00",3.12128685370624,"Approved","OW362"
"2023-05-13 20:00",3.12330139257875,"Approved","OW362"
"2023-05-13 21:00",3.12231593145126,"Approved","OW362"
"2023-05-13 22:00",3.12433047032377,"Approved","OW362"
"2023-05-13 23:00",3.12534500919628,"Approved","OW362"
"2023-05-14 00:00",3.12735954806878,"Approved","OW362"
"2023-05-14 01:00",3.12737408694129,"Approved","OW362"
"2023-05-14 02:00",3.1283886258138,"Approved","OW362"
"2023-05-14 03:00",3.1294031646863,"Approved","OW362"
"2023-05-14 04:00",3.12941770355881,"Approved","OW362"
"2023-05-14 05:00",3.12743224243132,"Approved","OW362"
"2023-05-14 06:00",3.12644678130383,"Approved","OW362"
"2023-05-14 07:00",3.12546132017634,"Approved","OW362"
"2023-05-14 08:00",3.12447585904884,"Approved","OW362"
"2023-05-14 09:00",3.12349039792135,"Approved","OW362"
"2023-05-14 10:00",3.12250493679386,"Approved","OW362"
"2023-05-14 11:00",3.12251947566637,"Approved","OW362"
"2023-05-14 12:00",3.12053401453887,"Approved","OW362"
"2023-05-14 13:00",3.12054855341138,"Approved","OW362"
"2023-05-14 14:00",3.12456309228389,"Approved","OW362"
"2023-05-14 15:00",3.1195776311564,"Approved","OW362"
"2023-05-14 16:00",3.1185921700289,"Approved","OW362"
"2023-05-14 17:00",3.11960670890141,"Approved","OW362"
"2023-05-14 18:00",3.12162124777392,"Approved","OW362"
"2023-05-14 19:00",3.12063578664642,"Approved","OW362"
"2023-05-14 20:00",3.12165032551893,"Approved","OW362"
"2023-05-14 21:00",3.12266486439144,"Approved","OW362"
"2023-05-14 22:00",3.12167940326395,"Approved","OW362"
"2023-05-14 23:00",3.12169394213646,"Approved","OW362"
"2023-05-15 00:00",3.12270848100896,"Approved","OW362"
"2023-05-15 01:00",3.12172301988147,"Approved","OW362"
"2023-05-15 02:00",3.12173755875398,"Approved","OW362"
"2023-05-15 03:00",3.12275209762649,"Approved","OW362"
"2023-05-15 04:00",3.12276663649899,"Approved","OW362"
"2023-05-15 05:00",3.1217811753715,"Approved","OW362"
"2023-05-15 06:00",3.12079571424401,"Approved","OW362"
"2023-05-15 07:00",3.12181025311652,"Approved","OW362"
"2023-05-15 08:00",3.12082479198902,"Approved","OW362"
"2023-05-15 09:00",3.12083933086153,"Approved","OW362"
"2023-05-15 10:00",3.12085386973404,"Approved","OW362"
"2023-05-15 11:00",3.12086840860655,"Approved","OW362"
"2023-05-15 12:00",3.12088294747905,"Approved","OW362"
"2023-05-15 13:00",3.11989748635156,"Approved","OW362"
"2023-05-15 14:00",3.11991202522407,"Approved","OW362"
"2023-05-15 15:00",3.11892656409658,"Approved","OW362"
"2023-05-15 16:00",3.11794110296908,"Approved","OW362"
"2023-05-15 17:00",3.11795564184159,"Approved","OW362"
"2023-05-15 18:00",3.1179701807141,"Approved","OW362"
"2023-05-15 19:00",3.11798471958661,"Approved","OW362"
"2023-05-15 20:00",3.11699925845911,"Approved","OW362"
"2023-05-15 21:00",3.11801379733162,"Approved","OW362"
"2023-05-15 22:00",3.11802833620413,"Approved","OW362"
"2023-05-15 23:00",3.11804287507664,"Approved","OW362"
"2023-05-16 00:00",3.11805741394914,"Approved","OW362"
"2023-05-16 01:00",3.11707195282165,"Approved","OW362"
"2023-05-16 02:00",3.11508649169416,"Approved","OW362"
"2023-05-16 03:00",3.11510103056667,"Approved","OW362"
"2023-05-16 04:00",3.11611556943917,"Approved","OW362"
"2023-05-16 05:00",3.11613010831168,"Approved","OW362"
"2023-05-16 06:00",3.11614464718419,"Approved","OW362"
"2023-05-16 07:00",3.1161591860567,"Approved","OW362"
"2023-05-16 08:00",3.1151737249292,"Approved","OW362"
"2023-05-16 09:00",3.11518826380171,"Approved","OW362"
"2023-05-16 10:00",3.11420280267422,"Approved","OW362"
"2023-05-16 11:00",3.11521734154673,"Approved","OW362"
"2023-05-16 12:00",3.11423188041923,"Approved","OW362"
"2023-05-16 13:00",3.11324641929174,"Approved","OW362"
"2023-05-16 14:00",3.11226095816425,"Approved","OW362"
"2023-05-16 15:00",3.11127549703676,"Approved","OW362"
"2023-05-16 16:00",3.11129003590926,"Approved","OW362"
"2023-05-16 17:00",3.11130457478177,"Approved","OW362"
"2023-05-16 18:00",3.11031911365428,"Approved","OW362"
"2023-05-16 19:00",3.11033365252679,"Approved","OW362"
"2023-05-16 20:00",3.11034819139929,"Approved","OW362"
"2023-05-16 21:00",3.1093627302718,"Approved","OW362"
"2023-05-16 22:00",3.11037726914431,"Approved","OW362"
"2023-05-16 23:00",3.10939180801682,"Approved","OW362"
"2023-05-17 00:00",3.10840634688932,"Approved","OW362"
"2023-05-17 01:00",3.10842088576183,"Approved","OW362"
"2023-05-17 02:00",3.10743542463434,"Approved","OW362"
"2023-05-17 03:00",3.10644996350685,"Approved","OW362"
"2023-05-17 04:00",3.10646450237935,"Approved","OW362"
"2023-05-17 05:00",3.10547904125186,"Approved","OW362"
"2023-05-17 06:00",3.10349358012437,"Approved","OW362"
"2023-05-17 07:00",3.10150811899688,"Approved","OW362"
"2023-05-17 08:00",3.10052265786938,"Approved","OW362"
"2023-05-17 09:00",3.09853719674189,"Approved","OW362"
"2023-05-17 10:00",3.0965517356144,"Approved","OW362"
"2023-05-17 11:00",3.09656627448691,"Approved","OW362"
"2023-05-17 12:00",3.09458081335941,"Approved","OW362"
"2023-05-17 13:00",3.09359535223192,"Approved","OW362"
"2023-05-17 14:00",3.09260989110443,"Approved","OW362"
"2023-05-17 15:00",3.09062442997694,"Approved","OW362"
"2023-05-17 16:00",3.08963896884944,"Approved","OW362"
"2023-05-17 17:00",3.08765350772195,"Approved","OW362"
"2023-05-17 18:00",3.08766804659446,"Approved","OW362"
"2023-05-17 19:00",3.08568258546697,"Approved","OW362"
"2023-05-17 20:00",3.08469712433947,"Approved","OW362"
"2023-05-17 21:00",3.08371166321198,"Approved","OW362"
"2023-05-17 22:00",3.08172620208449,"Approved","OW362"
"2023-05-17 23:00",3.081740740957,"Approved","OW362"
"2023-05-18 00:00",3.0797552798295,"Approved","OW362"
"2023-05-18 01:00",3.07876981870201,"Approved","OW362"
"2023-05-18 02:00",3.07678435757452,"Approved","OW362"
"2023-05-18 03:00",3.07679889644703,"Approved","OW362"
"2023-05-18 04:00",3.07681343531953,"Approved","OW362"
"2023-05-18 05:00",3.07682797419204,"Approved","OW362"
"2023-05-18 06:00",3.07584251306455,"Approved","OW362"
"2023-05-18 07:00",3.07485705193706,"Approved","OW362"
"2023-05-18 08:00",3.07387159080956,"Approved","OW362"
"2023-05-18 09:00",3.07188612968207,"Approved","OW362"
"2023-05-18 10:00",3.07090066855458,"Approved","OW362"
"2023-05-18 11:00",3.07091520742709,"Approved","OW362"
"2023-05-18 12:00",3.07092974629959,"Approved","OW362"
"2023-05-18 13:00",3.0699442851721,"Approved","OW362"
"2023-05-18 14:00",3.06895882404461,"Approved","OW362"
"2023-05-18 15:00",3.06797336291712,"Approved","OW362"
"2023-05-18 16:00",3.06698790178962,"Approved","OW362"
"2023-05-18 17:00",3.06600244066213,"Approved","OW362"
"2023-05-18 18:00",3.06901697953464,"Approved","OW362"
"2023-05-18 19:00",3.06803151840715,"Approved","OW362"
"2023-05-18 20:00",3.06604605727965,"Approved","OW362"
"2023-05-18 21:00",3.06606059615216,"Approved","OW362"
"2023-05-18 22:00",3.06707513502467,"Approved","OW362"
"2023-05-18 23:00",3.06708967389718,"Approved","OW362"
"2023-05-19 00:00",3.06710421276968,"Approved","OW362"
"2023-05-19 01:00",3.06711875164219,"Approved","OW362"
"2023-05-19 02:00",3.0661332905147,"Approved","OW362"
"2023-05-19 03:00",3.06614782938721,"Approved","OW362"
"2023-05-19 04:00",3.06616236825971,"Approved","OW362"
"2023-05-19 05:00",3.06517690713222,"Approved","OW362"
"2023-05-19 06:00",3.06419144600473,"Approved","OW362"
"2023-05-19 07:00",3.06820598487724,"Approved","OW362"
"2023-05-19 08:00",3.06422052374974,"Approved","OW362"
"2023-05-19 09:00",3.06423506262225,"Approved","OW362"
"2023-05-19 10:00",3.06324960149476,"Approved","OW362"
"2023-05-19 11:00",3.06426414036727,"Approved","OW362"
"2023-05-19 12:00",3.06427867923977,"Approved","OW362"
"2023-05-19 13:00",3.06529321811228,"Approved","OW362"
"2023-05-19 14:00",3.06430775698479,"Approved","OW362"
"2023-05-19 15:00",3.0633222958573,"Approved","OW362"
"2023-05-19 16:00",3.0653368347298,"Approved","OW362"
"2023-05-19 17:00",3.06435137360231,"Approved","OW362"
"2023-05-19 18:00",3.06036591247482,"Approved","OW362"
"2023-05-19 19:00",3.05938045134733,"Approved","OW362"
"2023-05-19 20:00",3.05739499021983,"Approved","OW362"
"2023-05-19 21:00",3.05740952909234,"Approved","OW362"
"2023-05-19 22:00",3.05642406796485,"Approved","OW362"
"2023-05-19 23:00",3.05443860683736,"Approved","OW362"
"2023-05-20 00:00",3.05345314570986,"Approved","OW362"
"2023-05-20 01:00",3.05346768458237,"Approved","OW362"
"2023-05-20 02:00",3.05548222345488,"Approved","OW362"
"2023-05-20 03:00",3.05449676232739,"Approved","OW362"
"2023-05-20 04:00",3.05251130119989,"Approved","OW362"
"2023-05-20 05:00",3.0505258400724,"Approved","OW362"
"2023-05-20 06:00",3.04954037894491,"Approved","OW362"
"2023-05-20 07:00",3.04855491781742,"Approved","OW362"
"2023-05-20 08:00",3.04856945668993,"Approved","OW362"
"2023-05-20 09:00",3.04758399556243,"Approved","OW362"
"2023-05-20 10:00",3.04659853443494,"Approved","OW362"
"2023-05-20 11:00",3.04561307330745,"Approved","OW362"
"2023-05-20 12:00",3.04862761217995,"Approved","OW362"
"2023-05-20 13:00",3.04864215105246,"Approved","OW362"
"2023-05-20 14:00",3.04465668992497,"Approved","OW362"
"2023-05-20 15:00",3.04367122879748,"Approved","OW362"
"2023-05-20 16:00",3.04268576766999,"Approved","OW362"
"2023-05-20 17:00",3.04170030654249,"Approved","OW362"
"2023-05-20 18:00",3.041714845415,"Approved","OW362"
"2023-05-20 19:00",3.04072938428751,"Approved","OW362"
"2023-05-20 20:00",3.04074392316002,"Approved","OW362"
"2023-05-20 21:00",3.03975846203252,"Approved","OW362"
"2023-05-20 22:00",3.04277300090503,"Approved","OW362"
"2023-05-20 23:00",3.04278753977754,"Approved","OW362"
"2023-05-21 00:00",3.03980207865005,"Approved","OW362"
"2023-05-21 01:00",3.03881661752255,"Approved","OW362"
"2023-05-21 02:00",3.03783115639506,"Approved","OW362"
"2023-05-21 03:00",3.03884569526757,"Approved","OW362"
"2023-05-21 04:00",3.03786023414008,"Approved","OW362"
"2023-05-21 05:00",3.03587477301258,"Approved","OW362"
"2023-05-21 06:00",3.03588931188509,"Approved","OW362"
"2023-05-21 07:00",3.0349038507576,"Approved","OW362"
"2023-05-21 08:00",3.03791838963011,"Approved","OW362"
"2023-05-21 09:00",3.03793292850261,"Approved","OW362"
"2023-05-21 10:00",3.04094746737512,"Approved","OW362"
"2023-05-21 11:00",3.03296200624763,"Approved","OW362"
"2023-05-21 12:00",3.03297654512014,"Approved","OW362"
"2023-05-21 13:00",3.03299108399264,"Approved","OW362"
"2023-05-21 14:00",3.03200562286515,"Approved","OW362"
"2023-05-21 15:00",3.03202016173766,"Approved","OW362"
"2023-05-21 16:00",3.03203470061017,"Approved","OW362"
"2023-05-21 17:00",3.03004923948267,"Approved","OW362"
"2023-05-21 18:00",3.03406377835518,"Approved","OW362"
"2023-05-21 19:00",3.03407831722769,"Approved","OW362"
"2023-05-21 20:00",3.0290928561002,"Approved","OW362"
"2023-05-21 21:00",3.0291073949727,"Approved","OW362"
"2023-05-21 22:00",3.02812193384521,"Approved","OW362"
"2023-05-21 23:00",3.02813647271772,"Approved","OW362"
"2023-05-22 00:00",3.02715101159023,"Approved","OW362"
"2023-05-22 01:00",3.02716555046273,"Approved","OW362"
"2023-05-22 02:00",3.02818008933524,"Approved","OW362"
"2023-05-22 03:00",3.02219462820775,"Approved","OW362"
"2023-05-22 04:00",3.02420916708026,"Approved","OW362"
"2023-05-22 05:00",3.02022370595276,"Approved","OW362"
"2023-05-22 06:00",3.01823824482527,"Approved","OW362"
"2023-05-22 07:00",3.01725278369778,"Approved","OW362"
"2023-05-22 08:00",3.01626732257029,"Approved","OW362"
"2023-05-22 09:00",3.01528186144279,"Approved","OW362"
"2023-05-22 10:00",3.0142964003153,"Approved","OW362"
"2023-05-22 11:00",3.01431093918781,"Approved","OW362"
"2023-05-22 12:00",3.01432547806032,"Approved","OW362"
"2023-05-22 13:00",3.01334001693282,"Approved","OW362"
"2023-05-22 14:00",3.01535455580533,"Approved","OW362"
"2023-05-22 15:00",3.01136909467784,"Approved","OW362"
"2023-05-22 16:00",3.01038363355035,"Approved","OW362"
"2023-05-22 17:00",3.01039817242285,"Approved","OW362"
"2023-05-22 18:00",3.00941271129536,"Approved","OW362"
"2023-05-22 19:00",3.00942725016787,"Approved","OW362"
"2023-05-22 20:00",3.00844178904038,"Approved","OW362"
"2023-05-22 21:00",3.00745632791288,"Approved","OW362"
"2023-05-22 22:00",3.00747086678539,"Approved","OW362"
"2023-05-22 23:00",3.0084854056579,"Approved","OW362"
"2023-05-23 00:00",3.01149994453041,"Approved","OW362"
"2023-05-23 01:00",3.00751448340291,"Approved","OW362"
"2023-05-23 02:00",3.00852902227542,"Approved","OW362"
"2023-05-23 03:00",3.00854356114793,"Approved","OW362"
"2023-05-23 04:00",3.00855810002044,"Approved","OW362"
"2023-05-23 05:00",3.00757263889294,"Approved","OW362"
"2023-05-23 06:00",3.00658717776545,"Approved","OW362"
"2023-05-23 07:00",3.00660171663796,"Approved","OW362"
"2023-05-23 08:00",3.00661625551047,"Approved","OW362"
"2023-05-23 09:00",3.00663079438297,"Approved","OW362"
"2023-05-23 10:00",3.00964533325548,"Approved","OW362"
"2023-05-23 11:00",3.00665987212799,"Approved","OW362"
"2023-05-23 12:00",3.0066744110005,"Approved","OW362"
"2023-05-23 13:00",3.006688949873,"Approved","OW362"
"2023-05-23 14:00",3.00570348874551,"Approved","OW362"
"2023-05-23 15:00",3.00571802761802,"Approved","OW362"
"2023-05-23 16:00",3.00773256649053,"Approved","OW362"
"2023-05-23 17:00",3.00574710536303,"Approved","OW362"
"2023-05-23 18:00",3.00576164423554,"Approved","OW362"
"2023-05-23 19:00",3.00977618310805,"Approved","OW362"